Location: Quedlinburg
(51.7921°N, 11.1414°E)
Time: 20:34:59
(UTC+02:00)

RS-15 - Pass Details

Date: 12 March 2026
Orbit: 1893 x 2152 km, 64.8° (Epoch: 17 April)

Event Time Altitude Azimuth Distance (km) Brightness Sun altitude
Rises 03:33:25 0° 307° (NW) 5,347 10.2 -27.8°
Reaches altitude 10° 03:36:46 10° 312° (NW) 4,373 9.7 -27.4°
Maximum altitude 03:47:57 59° 32° (NNE) 2,266 8.5 -25.9°
Drops below altitude 10° 03:59:38 10° 111° (ESE) 4,570 10.5 -24.4°
Sets 04:03:12 0° 115° (ESE) 5,598 11.0 -23.9°
